[[[{"header":{"parameterUnit":"kt","parameterCategory":2,"dx":1,"dy":1,"la1":30.253999710083008,"la2":30.299108505249023,"lo1":-89.0895004272461,"lo2":-89.04439544677734,"nx":28,"ny":28,"refTime":"2022-10-02T21:00:00:Z","depth":"0","parameterNumber":2,"parameterNumberName":"U-component_of_CURRENTS"},"data":[-0.5926,-0.5496,-0.5432,-0.4656,-0.4511,-0.3968,-0.3802,-0.3677,-0.3624,-0.3252,-0.3107,-0.3042,-0.3203,-0.3288,-0.3078,-0.2933,-0.3019,-0.2776,-0.3146,-0.3483,-0.3596,-0.3704,-0.354,-0.2649,-0.2649,-0.2417,-0.2416,-0.2416,-0.6344,-0.6205,-0.602,-0.5677,-0.5348,-0.5498,-0.5321,-0.5135,-0.4783,-0.4748,-0.4549,-0.4168,-0.3793,-0.3881,-0.359,-0.3405,-0.3396,-0.3477,-0.3521,-0.3516,-0.3936,-0.3741,-0.2879,-0.2879,-0.2879,-0.2879,-0.2879,-0.2879,-0.6996,-0.6831,-0.67,-0.6513,-0.6356,-0.6111,-0.5924,-0.596,-0.5784,-0.5674,-0.5806,-0.5518,-0.5326,-0.4985,-0.4889,-0.4592,-0.4922,-0.4487,-0.4675,-0.4802,-0.4532,-0.5023,-0.4447,-0.4454,-0.446,-0.4465,-0.447,0,-0.7408,-0.7381,-0.7379,-0.7182,-0.7042,-0.6965,-0.6954,-0.6866,-0.7165,-0.7089,-0.6907,-0.6776,-0.6511,-0.6024,-0.5916,-0.577,-0.601,-0.5939,-0.5986,-0.5214,-0.5221,-0.5017,-0.5752,-0.5404,-0.5417,-0.5426,-0.5433,-0.5438,-0.762,-0.7683,-0.7715,-0.7623,-0.7685,-0.772,-0.7672,-0.7973,-0.7936,-0.8061,-0.7886,-0.7785,-0.7496,-0.7188,-0.6921,-0.6735,-0.6852,-0.6249,-0.6154,-0.6121,-0.6156,-0.6243,-0.6148,-0.5575,-0.5558,-0.5544,-0.5532,0,-0.7611,-0.7811,-0.7902,-0.8124,-0.8136,-0.8158,-0.8282,-0.8277,-0.8529,-0.8385,-0.8379,-0.8415,-0.8163,-0.8118,-0.7889,-0.7706,-0.7274,-0.7308,-0.6845,-0.6649,-0.6188,-0.6309,-0.6099,-0.5953,-0.6888,-0.6879,-0.6871,0,-0.7651,-0.7791,-0.797,-0.8098,-0.8171,-0.8501,-0.8569,-0.8734,-0.8852,-0.8741,-0.8913,-0.8683,-0.8619,-0.8402,-0.8273,-0.7805,-0.7959,-0.7495,-0.7354,-0.6929,-0.6861,-0.6715,-0.6806,-0.777,-0.777,-0.7771,-0.7771,0,-0.7489,-0.7836,-0.8046,-0.8172,-0.849,-0.8591,-0.8734,-0.8879,-0.8885,-0.8999,-0.8891,-0.8871,-0.8621,-0.8537,-0.8171,-0.8173,-0.7901,-0.7826,-0.7422,-0.7398,-0.6869,-0.6791,-0.6721,-0.7771,-0.7772,-0.7772,-0.7772,0,-0.7559,-0.7694,-0.8011,-0.8288,-0.8361,-0.8524,-0.8698,-0.8872,-0.8923,-0.8892,-0.8826,-0.8663,-0.8564,-0.8388,-0.8153,-0.8157,-0.8,-0.7836,-0.7826,-0.7441,-0.7213,-0.6719,-0.6629,-0.6573,-0.7634,-0.7633,-0.7633,0,-0.7398,-0.7683,-0.7817,-0.8111,-0.8244,-0.8345,-0.8532,-0.8614,-0.8594,-0.8622,-0.8437,-0.8373,-0.8219,-0.8114,-0.8069,-0.7817,-0.7823,-0.783,-0.7556,-0.7551,-0.7266,-0.73,-0.6776,-0.6659,-0.7627,-0.7627,-0.7628,0,-0.7231,-0.7498,-0.7532,-0.7631,-0.785,-0.7929,-0.8141,-0.8251,-0.8286,-0.8275,-0.8312,-0.8213,-0.8047,-0.7996,-0.7831,-0.7786,-0.78,-0.7646,-0.7636,-0.7662,-0.7677,-0.7333,-0.7304,-0.767,-0.7672,-0.7674,-0.7623,0,-0.7141,-0.7309,-0.739,-0.7552,-0.7665,-0.7804,-0.7858,-0.7928,-0.7872,-0.7865,-0.7844,-0.7725,-0.7668,-0.76,-0.7533,-0.7549,-0.7489,-0.7364,-0.7317,-0.7403,-0.7361,-0.7366,-0.7246,-0.7242,-0.7239,-0.7236,0,0,-0.6915,-0.7083,-0.7071,-0.7216,-0.7311,-0.7245,-0.7422,-0.7461,-0.7537,-0.7542,-0.7449,-0.7394,-0.7319,-0.7336,-0.735,-0.73,-0.7252,-0.7339,-0.7343,-0.7356,-0.7367,-0.7335,-0.7343,-0.723,-0.7229,-0.7227,-0.7226,0,-0.6834,-0.69,-0.7012,-0.7105,-0.7159,-0.7192,-0.7215,-0.7281,-0.7274,-0.7392,-0.7252,-0.7197,-0.7237,-0.7178,-0.7144,-0.7255,-0.715,-0.7195,-0.7393,-0.7315,-0.7333,-0.7347,-0.7319,-0.733,-0.7218,-0.7219,-0.7219,0,-0.6676,-0.6715,-0.6787,-0.6922,-0.6955,-0.7101,-0.6961,-0.7042,-0.7145,-0.7003,-0.713,-0.7033,-0.6958,-0.7017,-0.7025,-0.6993,-0.7075,-0.705,-0.7064,-0.7134,-0.7051,-0.707,-0.7088,-0.6871,-0.6871,-0.6871,0,0,-0.6598,-0.6696,-0.6773,-0.6912,-0.6941,-0.6954,-0.6991,-0.6979,-0.7002,-0.7005,-0.6999,-0.6952,-0.6928,-0.6939,-0.6931,-0.7026,-0.6975,-0.7018,-0.7034,-0.7049,-0.7125,-0.7047,-0.7065,-0.687,-0.687,-0.687,0,0,-0.6556,-0.664,-0.6632,-0.6807,-0.687,-0.692,-0.6969,-0.6939,-0.6971,-0.6929,-0.6868,-0.6863,-0.6896,-0.6863,-0.6864,-0.689,-0.6804,-0.6808,-0.6967,-0.6986,-0.7002,-0.7097,-0.6753,0,0,0,0,0,-0.6495,-0.6637,-0.663,-0.6661,-0.6822,-0.6944,-0.6959,-0.6922,-0.6831,-0.6897,-0.6857,-0.6785,-0.6824,-0.6827,-0.6839,-0.687,-0.6865,-0.6866,-0.6867,-0.7087,-0.7108,-0.7125,0,0,0,0,0,0,-0.6507,-0.6551,-0.6624,-0.6688,-0.672,-0.6939,-0.681,-0.6807,-0.6823,-0.6808,-0.6798,-0.6787,-0.6754,-0.6817,-0.6829,-0.6858,-0.6749,-0.6865,-0.6866,-0.6867,-0.7094,-0.7111,-0.7125,0,0,0,0,0,-0.6517,-0.6552,-0.6828,-0.6683,-0.6713,-0.67,-0.6804,-0.68,-0.6815,-0.6789,-0.6777,-0.6775,-0.676,-0.6763,-0.6824,-0.6853,-0.6741,-0.6745,-0.6866,-0.6866,-0.6867,-0.7102,0,0,0,0,0,0,-0.6523,-0.6556,-0.6832,-0.6837,-0.6611,-0.6685,-0.6702,-0.6794,-0.6792,-0.6784,-0.6762,-0.675,-0.6766,-0.6767,-0.677,-0.6853,-0.6734,-0.6739,-0.6741,-0.6866,-0.6867,-0.6867,0,0,0,0,0,0,-0.6535,-0.6563,-0.6835,-0.6747,-0.6742,-0.6672,-0.6687,-0.6758,-0.679,-0.6767,-0.6757,-0.6756,-0.6721,-0.6771,-0.6772,-0.6889,-0.6729,-0.6733,-0.6736,-0.6738,-0.6867,-0.6867,0,0,0,0,0,0,-0.6545,-0.6568,-0.6746,-0.6742,-0.6737,-0.6799,-0.673,-0.6879,-0.6774,-0.6767,-0.6755,-0.6747,-0.6724,-0.6727,-0.6775,-0.6892,-0.6889,-0.6729,-0.6732,-0.6734,-0.6735,0,0,0,0,0,0,0,-0.6553,-0.642,-0.679,-0.6738,-0.6734,-0.6881,-0.6883,-0.6886,-0.6772,-0.6765,-0.6757,-0.675,-0.6703,-0.6708,-0.6713,-0.6894,0,0,-0.6728,-0.673,0,0,0,0,0,0,0,0,-0.6408,-0.6417,-0.679,-0.6791,-0.6791,-0.6881,-0.6883,-0.6885,-0.6771,-0.6765,-0.6759,-0.6753,-0.6705,-0.6708,-0.6712,0,0,0,0,0,0,0,0,0,0,0,0,0,0,0,-0.679,-0.6791,0,-0.6882,-0.6883,-0.6885,-0.677,-0.6765,-0.676,-0.6755,-0.6706,-0.6709,-0.6712,0,0,0,0,0,0,0,0,0,0,0,0,0,0,0,0,0,0,0,0,0,0,0,0,0,0,0,0,0,0,0,0,0,0,0,0,0,0,0,0,0,0,0,0,0,0,0,0,0,0,0,0,0,0,0,0,0,0,0,0,0,0,0,0,0,0,0,0,0]}],[{"header":{"parameterUnit":"kt","parameterCategory":2,"dx":1,"dy":1,"la1":30.253999710083008,"la2":30.299108505249023,"lo1":-89.0895004272461,"lo2":-89.04439544677734,"nx":28,"ny":28,"refTime":"2022-10-02T21:00:00:Z","depth":"0","parameterNumber":3,"parameterNumberName":"V-component_of_CURRENTS"},"data":[-0.2658,-0.2653,-0.2673,-0.2619,-0.2611,-0.253,-0.2501,-0.2261,-0.191,-0.102,-0.0333,0.0156,0.0988,0.2293,0.3081,0.3115,0.3411,0.333,0.3505,0.3035,0.2966,0.29,0.3016,0.3569,0.357,0.4184,0.4191,0.4196,-0.2712,-0.2751,-0.2767,-0.266,-0.2653,-0.2621,-0.2601,-0.2452,-0.2264,-0.1842,-0.1512,-0.0543,0.0316,0.1041,0.1947,0.2314,0.2351,0.2455,0.253,0.2613,0.1895,0.198,0.2322,0.2322,0.2322,0.2321,0.2321,0.2321,-0.2779,-0.2775,-0.271,-0.2659,-0.263,-0.2599,-0.255,-0.2455,-0.235,-0.2053,-0.2007,-0.1457,-0.065,0.038,0.0674,0.137,0.1291,0.1636,0.1737,0.1739,0.197,0.1133,0.1343,0.1342,0.1341,0.134,0.134,0,-0.2722,-0.2682,-0.2618,-0.2577,-0.2523,-0.2445,-0.2371,-0.2402,-0.2201,-0.2137,-0.1982,-0.1746,-0.1166,-0.046,0.019,0.0485,0.0954,0.0786,0.1085,0.151,0.155,0.1731,0.0834,0.0967,0.0964,0.0961,0.096,0.0958,-0.2555,-0.2591,-0.2413,-0.2378,-0.2295,-0.2202,-0.2158,-0.1957,-0.1926,-0.1788,-0.1807,-0.1554,-0.1272,-0.0692,-0.0151,0.0366,0.0582,0.0686,0.0853,0.1127,0.1286,0.1321,0.1446,0.0923,0.0927,0.0931,0.0934,0,-0.2416,-0.2333,-0.2275,-0.2077,-0.203,-0.1981,-0.1809,-0.1773,-0.1635,-0.1597,-0.157,-0.1303,-0.1018,-0.0647,-0.0296,-0.0001,0.0495,0.0406,0.041,0.0469,0.1071,0.1181,0.147,0.1641,0.0706,0.071,0.0713,0,-0.2135,-0.2121,-0.1949,-0.1953,-0.1896,-0.1687,-0.1636,-0.1487,-0.134,-0.1294,-0.1031,-0.0993,-0.0601,-0.0433,-0.0167,0.0149,0.0078,0.0436,0.0489,0.0539,0.0553,0.0907,0.1034,0.0364,0.0364,0.0364,0.0364,0,-0.1932,-0.1827,-0.1837,-0.1777,-0.1574,-0.152,-0.1398,-0.1192,-0.112,-0.0934,-0.0914,-0.0629,-0.0566,-0.0328,-0.0081,-0.0036,0.0135,0.0232,0.045,0.0457,0.0616,0.0638,0.0915,0.0364,0.0364,0.0364,0.0364,0,-0.1703,-0.1661,-0.168,-0.1501,-0.1473,-0.1418,-0.1234,-0.1128,-0.0921,-0.0811,-0.0631,-0.0474,-0.0307,-0.0216,0.0035,0.0008,0.0122,0.0226,0.023,0.0446,0.0512,0.0509,0.0559,0.0863,0.0271,0.027,0.0269,0,-0.1529,-0.1563,-0.1447,-0.1407,-0.1385,-0.1189,-0.1098,-0.0941,-0.079,-0.0666,-0.0456,-0.0318,-0.0162,-0.0108,-0.0003,0.0152,0.0196,0.0173,0.0364,0.0369,0.0407,0.0438,0.0516,0.054,0.0263,0.0263,0.0264,0,-0.1417,-0.132,-0.1331,-0.129,-0.114,-0.1086,-0.0982,-0.0839,-0.0792,-0.0583,-0.0493,-0.0227,-0.0129,-0.0005,0.0131,0.0199,0.0184,0.0268,0.0277,0.0176,0.0278,0.041,0.0427,0.0252,0.0253,0.0254,0.0258,0,-0.1252,-0.1226,-0.1232,-0.1174,-0.109,-0.106,-0.0918,-0.0826,-0.0715,-0.0598,-0.0397,-0.0185,0.0026,0.0092,0.0194,0.0283,0.0299,0.0375,0.0379,0.0395,0.0402,0.0405,0.0422,0.0426,0.0429,0.0431,0,0,-0.1156,-0.1154,-0.1056,-0.1054,-0.0995,-0.0883,-0.0873,-0.0779,-0.0593,-0.0511,-0.0467,-0.0098,0.0049,0.0218,0.0246,0.0355,0.0387,0.0334,0.042,0.0418,0.0417,0.042,0.042,0.0437,0.0438,0.0439,0.044,0,-0.1113,-0.1039,-0.1063,-0.0994,-0.093,-0.0851,-0.0848,-0.0725,-0.0655,-0.0492,-0.0366,-0.0214,0.006,0.0183,0.0282,0.0382,0.0419,0.0444,0.0373,0.0443,0.0437,0.0432,0.0433,0.043,0.0448,0.0447,0.0447,0,-0.1036,-0.0992,-0.0977,-0.0894,-0.0842,-0.0804,-0.0742,-0.0703,-0.0652,-0.0476,-0.0331,-0.0183,0.0028,0.0186,0.0271,0.0291,0.0449,0.0448,0.0439,0.0439,0.0514,0.0509,0.0504,0.0545,0.0544,0.0542,0,0,-0.1011,-0.0987,-0.0896,-0.0881,-0.0857,-0.0764,-0.0726,-0.0682,-0.0558,-0.0504,-0.0349,-0.0171,-0.0017,0.0078,0.0244,0.04,0.045,0.0443,0.0439,0.0433,0.0429,0.0504,0.0501,0.0538,0.0537,0.0537,0,0,-0.0997,-0.0915,-0.0885,-0.0864,-0.0791,-0.0686,-0.0672,-0.0621,-0.0482,-0.048,-0.0315,-0.0266,-0.0106,0.0031,-0.005,0.0217,0.026,0.0281,0.0064,0.0062,0.0058,-0.0003,-0.0007,0,0,0,0,0,-0.0924,-0.0926,-0.09,-0.0887,-0.0777,-0.0698,-0.0677,-0.0612,-0.0605,-0.0581,-0.0423,-0.0384,0.0036,-0.0033,0.0014,0.0012,0.0474,0.0485,0.0496,0.0259,0.0254,0.025,0,0,0,0,0,0,-0.0919,-0.0904,-0.09,-0.0803,-0.0778,-0.0697,-0.0667,-0.0646,-0.0606,-0.0601,-0.0412,-0.0378,-0.0268,-0.0051,-0.001,-0.0015,-0.002,0.0478,0.0488,0.0496,0.0257,0.0254,0.025,0,0,0,0,0,-0.0914,-0.0902,-0.0754,-0.08,-0.0778,-0.069,-0.0668,-0.0651,-0.061,-0.044,-0.0409,-0.0571,-0.027,-0.0226,-0.0026,-0.0038,-0.0048,-0.0033,0.0484,0.0492,0.0499,0.0255,0,0,0,0,0,0,-0.091,-0.0858,-0.0747,-0.0736,-0.082,-0.0692,-0.0674,-0.0655,-0.0447,-0.0421,-0.0591,-0.0588,-0.0271,-0.0237,-0.0204,-0.0053,-0.007,-0.0055,-0.0046,0.049,0.0496,0.0501,0,0,0,0,0,0,-0.0865,-0.085,-0.0741,-0.0769,-0.076,-0.0694,-0.0678,-0.052,-0.0441,-0.0604,-0.0599,-0.0591,-0.0295,-0.0243,-0.0217,0.0027,-0.0087,-0.0073,-0.0063,-0.0057,0.0495,0.05,0,0,0,0,0,0,-0.0856,-0.0843,-0.0771,-0.0764,-0.0756,-0.0619,-0.0546,-0.0416,-0.0538,-0.0611,-0.0541,-0.0542,-0.0302,-0.0275,-0.0227,0.0005,0.0021,-0.0087,-0.0077,-0.007,-0.0066,0,0,0,0,0,0,0,-0.0849,-0.0968,-0.0824,-0.0759,-0.0752,-0.0636,-0.0632,-0.0628,-0.0538,-0.0539,-0.0541,-0.0542,-0.017,-0.0154,-0.0138,-0.0013,0,0,-0.0088,-0.0081,0,0,0,0,0,0,0,0,-0.097,-0.0968,-0.0824,-0.0822,-0.0821,-0.0636,-0.0632,-0.0629,-0.0538,-0.0539,-0.054,-0.0541,-0.0166,-0.0153,-0.014,0,0,0,0,0,0,0,0,0,0,0,0,0,0,0,-0.0824,-0.0822,0,-0.0635,-0.0632,-0.063,-0.0538,-0.0539,-0.054,-0.0541,-0.0162,-0.0152,-0.0141,0,0,0,0,0,0,0,0,0,0,0,0,0,0,0,0,0,0,0,0,0,0,0,0,0,0,0,0,0,0,0,0,0,0,0,0,0,0,0,0,0,0,0,0,0,0,0,0,0,0,0,0,0,0,0,0,0,0,0,0,0,0,0,0,0,0,0,0,0]}]],[[{"header":{"parameterUnit":"kt","parameterCategory":2,"dx":1,"dy":1,"la1":30.253999710083008,"la2":30.299108505249023,"lo1":-89.0895004272461,"lo2":-89.04439544677734,"nx":28,"ny":28,"refTime":"2022-10-02T21:00:00:Z","depth":"2","parameterNumber":2,"parameterNumberName":"U-component_of_CURRENTS"},"data":[-0.4322,-0.3975,-0.3823,-0.3575,-0.3529,-0.3316,-0.3247,-0.3107,-0.2985,-0.2684,-0.2487,-0.2657,-0.2766,-0.2172,-0.2093,-0.1819,-0.2307,-0.1728,-0.2999,-0.3218,-0.3323,-0.3713,-0.3096,0,0,0,0,0,-0.4298,-0.4228,-0.4122,-0.4079,-0.3982,-0.411,-0.4119,-0.4002,-0.3917,-0.3856,-0.3757,-0.3241,-0.2992,-0.3111,-0.2742,-0.2665,-0.2751,-0.2613,-0.2713,-0.2834,-0.2944,-0.2463,-0.1743,-0.174,-0.1736,-0.1733,0,0,-0.4651,-0.4526,-0.4527,-0.4395,-0.451,-0.4471,-0.4397,-0.4528,-0.4526,-0.4424,-0.4616,-0.4368,-0.4375,-0.3965,-0.3878,-0.3822,-0.4203,-0.4032,-0.4083,-0.4148,-0.3722,-0.3696,-0.3336,-0.3342,-0.3348,-0.3353,-0.3358,0,-0.4751,-0.4855,-0.4859,-0.4778,-0.486,-0.4886,-0.4975,-0.4935,-0.5178,-0.5108,-0.5086,-0.5052,-0.5085,-0.4746,-0.4767,-0.4765,-0.4982,-0.4814,-0.5829,-0.4462,-0.4481,-0.455,-0.4602,-0.4312,-0.4325,-0.4334,-0.4341,-0.4346,-0.4933,-0.4965,-0.5099,-0.5136,-0.5202,-0.5273,-0.5255,-0.5403,-0.5377,-0.5483,-0.5425,-0.5562,-0.5437,-0.5544,-0.5427,-0.5541,-0.5816,-0.5122,-0.4801,-0.5722,-0.5789,-0.5798,-0.5803,-0.4483,-0.4465,-0.4451,-0.444,0,-0.5001,-0.5248,-0.5335,-0.5416,-0.5439,-0.5416,-0.5618,-0.5461,-0.5522,-0.5496,-0.5538,-0.5524,-0.5628,-0.5772,-0.5953,-0.5847,-0.5896,-0.5897,-0.5519,-0.5492,-0.5872,-0.5864,-0.5789,-0.5776,-0.5765,-0.5756,-0.5748,0,-0.5241,-0.5367,-0.5511,-0.5576,-0.5477,-0.5746,-0.5675,-0.5518,-0.552,-0.5484,-0.5542,-0.545,-0.5596,-0.57,-0.5834,-0.5827,-0.6009,-0.5759,-0.5812,-0.539,-0.5332,-0.6168,-0.6174,-0.6066,-0.6062,-0.6057,-0.6054,0,-0.5379,-0.5538,-0.566,-0.5748,-0.5833,-0.5824,-0.5857,-0.5739,-0.5712,-0.5616,-0.5596,-0.5512,-0.5593,-0.5652,-0.5805,-0.5809,-0.5971,-0.599,-0.5825,-0.5821,-0.5453,-0.5406,-0.6048,-0.6047,-0.6046,-0.6044,-0.6043,0,-0.5553,-0.5624,-0.5797,-0.5871,-0.5907,-0.5936,-0.5787,-0.5833,-0.5659,-0.5674,-0.5631,-0.569,-0.5585,-0.565,-0.5691,-0.5657,-0.5828,-0.5912,-0.5934,-0.5578,-0.5699,-0.5566,-0.5413,-0.6378,-0.6377,-0.6375,-0.6374,0,-0.5575,-0.5692,-0.5882,-0.5957,-0.6003,-0.6067,-0.6016,-0.5977,-0.598,-0.5908,-0.5863,-0.5875,-0.5876,-0.5858,-0.5751,-0.5802,-0.5829,-0.5705,-0.6107,-0.6124,-0.564,-0.5544,-0.5024,-0.5429,-0.6357,-0.6359,-0.636,0,-0.5572,-0.5779,-0.5804,-0.5838,-0.6052,-0.6088,-0.6077,-0.6042,-0.5859,-0.6083,-0.6034,-0.5972,-0.5988,-0.595,-0.5891,-0.5811,-0.5837,-0.5956,-0.5958,-0.6105,-0.6018,-0.5595,-0.5571,-0.578,-0.5776,-0.5773,-0.6346,0,-0.5641,-0.5745,-0.5801,-0.5872,-0.6001,-0.6081,-0.6113,-0.6095,-0.6168,-0.6197,-0.6215,-0.6294,-0.628,-0.6219,-0.625,-0.6023,-0.6251,-0.619,-0.612,-0.6107,-0.6404,-0.6414,-0.6352,-0.6356,-0.6359,-0.6361,0,0,-0.5585,-0.5681,-0.5759,-0.5847,-0.5943,-0.5922,-0.6021,-0.6005,-0.6208,-0.6215,-0.6344,-0.6442,-0.6433,-0.6223,-0.6209,-0.6333,-0.6486,-0.6207,-0.6186,-0.6166,-0.6147,-0.6417,-0.6423,-0.6367,-0.6368,-0.6369,-0.637,0,-0.5575,-0.5683,-0.5723,-0.5815,-0.5902,-0.5905,-0.5938,-0.6058,-0.607,-0.6309,-0.6249,-0.6263,-0.6511,-0.6328,-0.6288,-0.6398,-0.6378,-0.6416,-0.6261,-0.6213,-0.6189,-0.6168,-0.6428,-0.6431,-0.6377,-0.6376,-0.6376,0,-0.5529,-0.5593,-0.5622,-0.5761,-0.5813,-0.5856,-0.585,-0.5927,-0.5932,-0.6045,-0.6181,-0.6246,-0.6274,-0.6319,-0.6356,-0.6341,-0.6359,-0.6338,-0.6331,-0.6281,-0.623,-0.6207,-0.6187,-0.6415,-0.6413,-0.6412,0,0,-0.5512,-0.5577,-0.5659,-0.5758,-0.5796,-0.5846,-0.5887,-0.5873,-0.599,-0.6033,-0.612,-0.6193,-0.6208,-0.6239,-0.633,-0.6451,-0.6513,-0.6325,-0.6324,-0.6321,-0.6269,-0.622,-0.6201,-0.6405,-0.6405,-0.6405,0,0,-0.5477,-0.5548,-0.5561,-0.5674,-0.5747,-0.5798,-0.5838,-0.5844,-0.5987,-0.5976,-0.5989,-0.6011,-0.6112,-0.6187,-0.6122,-0.611,-0.6145,-0.6167,-0.5954,-0.5954,-0.5954,-0.5837,-0.5871,0,0,0,0,0,-0.5467,-0.5552,-0.5565,-0.5589,-0.5721,-0.5828,-0.5843,-0.5796,-0.5752,-0.58,-0.5932,-0.5774,-0.6123,-0.6068,-0.6099,-0.5901,-0.6327,-0.6341,-0.6354,-0.6118,-0.6117,-0.6116,0,0,0,0,0,0,-0.5476,-0.5509,-0.5561,-0.5622,-0.5649,-0.5824,-0.5702,-0.5695,-0.5741,-0.5723,-0.5776,-0.5776,-0.575,-0.6042,-0.6073,-0.5879,-0.5861,-0.6332,-0.6344,-0.6355,-0.6117,-0.6117,-0.6116,0,0,0,0,0,-0.5484,-0.551,-0.5728,-0.562,-0.5644,-0.5621,-0.5694,-0.5687,-0.5729,-0.5734,-0.5732,-0.5684,-0.5755,-0.5779,-0.6059,-0.5861,-0.5839,-0.585,-0.634,-0.6349,-0.6358,-0.6117,0,0,0,0,0,0,-0.5489,-0.552,-0.5732,-0.5737,-0.5537,-0.5608,-0.5617,-0.5681,-0.5737,-0.5735,-0.5639,-0.5624,-0.5762,-0.5778,-0.5797,-0.5849,-0.582,-0.5833,-0.584,-0.6347,-0.6354,-0.6361,0,0,0,0,0,0,-0.5504,-0.5526,-0.5735,-0.5633,-0.5627,-0.5596,-0.5604,-0.5757,-0.574,-0.5641,-0.5629,-0.5632,-0.5728,-0.578,-0.5794,-0.6035,-0.5807,-0.5818,-0.5826,-0.5831,-0.6353,-0.6359,0,0,0,0,0,0,-0.5513,-0.5531,-0.5632,-0.5628,-0.5622,-0.5687,-0.573,-0.5868,-0.5646,-0.5641,-0.5624,-0.5614,-0.5731,-0.5745,-0.5792,-0.6028,-0.6033,-0.5807,-0.5815,-0.5821,-0.5824,0,0,0,0,0,0,0,-0.5519,-0.5406,-0.5689,-0.5623,-0.5617,-0.5787,-0.5789,-0.5792,-0.5644,-0.5635,-0.5626,-0.5618,-0.574,-0.5753,-0.5766,-0.6022,0,0,-0.5806,-0.5812,0,0,0,0,0,0,0,0,-0.5397,-0.5404,-0.5689,-0.569,-0.5691,-0.5787,-0.5789,-0.5791,-0.5642,-0.5635,-0.5628,-0.5622,-0.5744,-0.5754,-0.5765,0,0,0,0,0,0,0,0,0,0,0,0,0,0,0,-0.5689,-0.569,0,-0.5788,-0.5789,-0.5791,-0.5641,-0.5636,-0.563,-0.5624,-0.5747,-0.5755,-0.5764,0,0,0,0,0,0,0,0,0,0,0,0,0,0,0,0,0,0,0,0,0,0,0,0,0,0,0,0,0,0,0,0,0,0,0,0,0,0,0,0,0,0,0,0,0,0,0,0,0,0,0,0,0,0,0,0,0,0,0,0,0,0,0,0,0,0,0,0,0]}],[{"header":{"parameterUnit":"kt","parameterCategory":2,"dx":1,"dy":1,"la1":30.253999710083008,"la2":30.299108505249023,"lo1":-89.0895004272461,"lo2":-89.04439544677734,"nx":28,"ny":28,"refTime":"2022-10-02T21:00:00:Z","depth":"2","parameterNumber":3,"parameterNumberName":"V-component_of_CURRENTS"},"data":[-0.2141,-0.2168,-0.2172,-0.2231,-0.2245,-0.2253,-0.2248,-0.2071,-0.1825,-0.1453,-0.1057,-0.0534,-0.0008,0.0382,0.0728,0.0988,0.1008,0.098,0.1005,0.0902,0.0901,0.118,0.1298,0,0,0,0,0,-0.2116,-0.2163,-0.2176,-0.2161,-0.2194,-0.2159,-0.2141,-0.2047,-0.1915,-0.1582,-0.1268,-0.0705,-0.0096,0.0354,0.0897,0.1233,0.1216,0.1258,0.1208,0.121,0.1213,0.129,0.119,0.1191,0.1192,0.1192,0,0,-0.213,-0.2133,-0.2131,-0.208,-0.2088,-0.2095,-0.2064,-0.1973,-0.1869,-0.1593,-0.1423,-0.0966,-0.0514,0.0366,0.0715,0.1041,0.1099,0.1266,0.1266,0.1266,0.1345,0.1272,0.1261,0.1262,0.1263,0.1263,0.1264,0,-0.2071,-0.2064,-0.2032,-0.2014,-0.1991,-0.192,-0.1836,-0.1855,-0.1627,-0.1509,-0.1313,-0.1085,-0.0558,0.0005,0.0552,0.0836,0.1095,0.114,0.1151,0.131,0.1222,0.1184,0.1183,0.1202,0.1202,0.1203,0.1203,0.1203,-0.1954,-0.199,-0.1892,-0.1878,-0.183,-0.1725,-0.1663,-0.1471,-0.1415,-0.1184,-0.1145,-0.0881,-0.0563,-0.0016,0.0509,0.0954,0.1058,0.1131,0.1361,0.1347,0.1309,0.1304,0.13,0.1208,0.1207,0.1207,0.1207,0,-0.1865,-0.1841,-0.1821,-0.1679,-0.1635,-0.1561,-0.1369,-0.1332,-0.1154,-0.1033,-0.0975,-0.0617,-0.0293,0.0133,0.0526,0.0865,0.1167,0.1252,0.1094,0.106,0.1297,0.1294,0.1344,0.1345,0.1346,0.1347,0.1347,0,-0.1703,-0.1706,-0.1605,-0.161,-0.1532,-0.1308,-0.1225,-0.1054,-0.0865,-0.074,-0.0408,-0.029,0.0222,0.045,0.0788,0.1129,0.1091,0.144,0.1409,0.135,0.1341,0.138,0.1371,0.1475,0.1477,0.1478,0.1479,0,-0.1597,-0.1514,-0.1492,-0.1427,-0.1194,-0.1146,-0.0956,-0.0668,-0.0532,-0.0317,-0.0277,0.0117,0.0274,0.0569,0.097,0.1018,0.1231,0.1295,0.1408,0.14,0.134,0.1327,0.1481,0.1481,0.1482,0.1482,0.1483,0,-0.1447,-0.1424,-0.1392,-0.1235,-0.1195,-0.1049,-0.0784,-0.056,-0.027,-0.013,0.0123,0.0325,0.0673,0.0842,0.1201,0.1157,0.1271,0.1386,0.1379,0.1412,0.1329,0.1034,0.118,0.1197,0.1196,0.1196,0.1195,0,-0.1357,-0.1371,-0.1246,-0.1122,-0.1075,-0.0848,-0.0598,-0.036,-0.012,0.003,0.0395,0.0613,0.0906,0.0941,0.1168,0.1301,0.1391,0.1405,0.1282,0.1276,0.1211,0.1397,0.1337,0.1173,0.1189,0.119,0.119,0,-0.1288,-0.1225,-0.1225,-0.1189,-0.0924,-0.0861,-0.057,-0.0341,-0.0266,0.0084,0.0203,0.0783,0.0799,0.0988,0.1129,0.1272,0.1365,0.1246,0.1247,0.1057,0.1337,0.1373,0.1379,0.1373,0.1377,0.138,0.1185,0,-0.116,-0.1153,-0.1162,-0.1026,-0.0916,-0.0884,-0.0627,-0.052,-0.0313,-0.015,0.0152,0.0461,0.07,0.0856,0.102,0.1221,0.1096,0.1127,0.1001,0.1176,0.1065,0.107,0.0999,0.0997,0.0996,0.0995,0,0,-0.1095,-0.1104,-0.1048,-0.1034,-0.0959,-0.0837,-0.0789,-0.0613,-0.0434,-0.0356,-0.0255,0.0226,0.044,0.0751,0.0909,0.0987,0.0915,0.0896,0.1125,0.114,0.1153,0.1055,0.1061,0.0993,0.0993,0.0992,0.0992,0,-0.1051,-0.1017,-0.1043,-0.0989,-0.0957,-0.0839,-0.0835,-0.075,-0.0637,-0.0371,-0.0242,-0.0021,0.0318,0.0511,0.0673,0.0941,0.0816,0.0984,0.1051,0.1113,0.1129,0.1143,0.105,0.1055,0.0989,0.0989,0.0989,0,-0.0974,-0.095,-0.0952,-0.0918,-0.0886,-0.0798,-0.0816,-0.0809,-0.0655,-0.0576,-0.0314,-0.0171,0.0087,0.0352,0.0468,0.0417,0.0691,0.0671,0.0683,0.0675,0.0733,0.0754,0.0774,0.05,0.0497,0.0495,0,0,-0.094,-0.0938,-0.089,-0.0906,-0.0894,-0.0831,-0.0814,-0.0782,-0.0655,-0.0596,-0.0447,-0.0238,0.0009,0.0112,0.0299,0.0493,0.0455,0.0602,0.0626,0.0644,0.0646,0.0709,0.0733,0.0486,0.0485,0.0485,0,0,-0.0921,-0.0878,-0.0853,-0.0873,-0.0834,-0.0772,-0.0772,-0.073,-0.0579,-0.0559,-0.0403,-0.0353,-0.01,-0.003,-0.0161,0.0257,0.0177,0.0205,0.0172,0.0202,0.0226,0.018,-0.0183,0,0,0,0,0,-0.0856,-0.0886,-0.0865,-0.0863,-0.0818,-0.0786,-0.0775,-0.0722,-0.0698,-0.0688,-0.0487,-0.0504,-0.0019,-0.0134,-0.01,0.0005,0.0365,0.0387,0.0407,0.0415,0.0447,0.0473,0,0,0,0,0,0,-0.0855,-0.0853,-0.0864,-0.0811,-0.0801,-0.0784,-0.0738,-0.0722,-0.0698,-0.0689,-0.053,-0.0499,-0.0403,-0.0151,-0.012,-0.002,-0.0193,0.0374,0.0392,0.0408,0.0426,0.0452,0.0473,0,0,0,0,0,-0.0854,-0.0852,-0.0801,-0.0808,-0.0799,-0.0738,-0.0737,-0.0723,-0.0692,-0.0555,-0.0525,-0.0656,-0.0406,-0.037,-0.0133,-0.0034,-0.0214,-0.0203,0.0385,0.04,0.0412,0.0439,0,0,0,0,0,0,-0.0853,-0.0818,-0.0797,-0.0792,-0.0805,-0.0736,-0.0726,-0.0725,-0.0553,-0.0531,-0.0673,-0.0668,-0.0408,-0.038,-0.0353,-0.0039,-0.0231,-0.022,-0.0213,0.0396,0.0407,0.0417,0,0,0,0,0,0,-0.082,-0.0814,-0.0794,-0.0793,-0.0786,-0.0735,-0.0726,-0.0612,-0.0547,-0.0677,-0.0671,-0.0672,-0.0415,-0.0387,-0.0365,-0.0191,-0.0244,-0.0233,-0.0226,-0.0221,0.0405,0.0414,0,0,0,0,0,0,-0.0816,-0.0811,-0.0793,-0.0788,-0.0782,-0.0706,-0.0625,-0.0556,-0.0635,-0.0681,-0.0633,-0.0631,-0.0421,-0.0399,-0.0374,-0.021,-0.0196,-0.0244,-0.0236,-0.0231,-0.0228,0,0,0,0,0,0,0,-0.0812,-0.0867,-0.0842,-0.0784,-0.0778,-0.074,-0.0738,-0.0735,-0.0635,-0.0634,-0.0633,-0.0632,-0.0307,-0.0295,-0.0283,-0.0226,0,0,-0.0245,-0.024,0,0,0,0,0,0,0,0,-0.0867,-0.0867,-0.0842,-0.0842,-0.0841,-0.074,-0.0738,-0.0736,-0.0635,-0.0634,-0.0633,-0.0632,-0.0304,-0.0294,-0.0284,0,0,0,0,0,0,0,0,0,0,0,0,0,0,0,-0.0842,-0.0842,0,-0.074,-0.0738,-0.0736,-0.0634,-0.0634,-0.0633,-0.0633,-0.0301,-0.0293,-0.0285,0,0,0,0,0,0,0,0,0,0,0,0,0,0,0,0,0,0,0,0,0,0,0,0,0,0,0,0,0,0,0,0,0,0,0,0,0,0,0,0,0,0,0,0,0,0,0,0,0,0,0,0,0,0,0,0,0,0,0,0,0,0,0,0,0,0,0,0,0]}]],[[{"header":{"parameterUnit":"kt","parameterCategory":2,"dx":1,"dy":1,"la1":30.253999710083008,"la2":30.299108505249023,"lo1":-89.0895004272461,"lo2":-89.04439544677734,"nx":28,"ny":28,"refTime":"2022-10-02T21:00:00:Z","depth":"4","parameterNumber":2,"parameterNumberName":"U-component_of_CURRENTS"},"data":[-0.1471,-0.1605,-0.1711,-0.191,-0.2047,-0.2348,-0.2553,-0.2764,-0.2739,-0.2977,-0.2893,-0.3066,-0.2949,-0.3158,-0.2887,-0.2894,-0.2851,-0.3023,-0.3015,-0.3053,-0.3072,-0.3089,-0.2908,0,0,0,0,0,-0.1572,-0.1643,-0.1807,-0.2043,-0.232,-0.2475,-0.2824,-0.2971,-0.3245,-0.3214,-0.328,-0.327,-0.3156,-0.3166,-0.2977,-0.3211,-0.3117,-0.2986,-0.301,-0.3065,-0.3086,-0.2903,0,0,0,0,0,0,-0.1744,-0.1781,-0.1992,-0.2178,-0.2458,-0.2668,-0.2798,-0.2973,-0.3106,-0.3388,-0.3401,-0.3469,-0.3582,-0.3387,-0.3339,-0.3222,-0.3104,-0.2997,-0.302,-0.304,-0.2882,-0.2823,-0.2745,0,0,0,0,0,-0.1887,-0.2035,-0.2109,-0.2375,-0.2568,-0.2751,-0.2962,-0.306,-0.3281,-0.3503,-0.3553,-0.3525,-0.3574,-0.347,-0.343,-0.3319,-0.3425,-0.336,-0.3367,-0.3162,-0.314,-0.3143,-0.3147,-0.3166,-0.3169,-0.317,-0.3171,0,-0.213,-0.2175,-0.2416,-0.2527,-0.2598,-0.2739,-0.2879,-0.3057,-0.3199,-0.3465,-0.3558,-0.3694,-0.3756,-0.362,-0.3613,-0.3491,-0.3407,-0.3418,-0.3199,-0.3173,-0.3172,-0.317,-0.3167,-0.3188,-0.3187,-0.3185,-0.3184,0,-0.2254,-0.2407,-0.245,-0.2599,-0.269,-0.2712,-0.2892,-0.3015,-0.3185,-0.3395,-0.347,-0.363,-0.3671,-0.3681,-0.3698,-0.3556,-0.349,-0.3425,-0.3633,-0.3642,-0.3203,-0.3194,-0.3216,-0.321,-0.3205,-0.32,-0.3197,0,-0.2449,-0.247,-0.2679,-0.2665,-0.2733,-0.2729,-0.2834,-0.2918,-0.3091,-0.3232,-0.3334,-0.3456,-0.3494,-0.3564,-0.3502,-0.3428,-0.3562,-0.3258,-0.3256,-0.3387,-0.3379,-0.3385,-0.3375,-0.3453,-0.3452,-0.3451,-0.345,0,-0.2579,-0.2632,-0.2654,-0.2649,-0.2681,-0.2717,-0.2734,-0.2851,-0.2938,-0.3142,-0.3287,-0.3327,-0.3432,-0.3404,-0.3421,-0.3379,-0.3504,-0.3443,-0.3257,-0.3248,-0.3374,-0.3366,-0.3448,-0.3448,-0.3448,-0.3447,-0.3447,0,-0.2656,-0.2698,-0.2701,-0.2721,-0.2727,-0.2708,-0.2794,-0.2793,-0.2953,-0.3052,-0.3147,-0.3199,-0.3258,-0.3205,-0.3267,-0.325,-0.3255,-0.327,-0.3277,-0.3079,-0.3058,-0.3323,-0.3363,-0.3361,-0.336,-0.3358,-0.3357,0,-0.2724,-0.2753,-0.275,-0.2724,-0.2736,-0.2781,-0.2758,-0.2817,-0.2904,-0.3,-0.3043,-0.3091,-0.3034,-0.3105,-0.3108,-0.3157,-0.3182,-0.3116,-0.3239,-0.3243,-0.3084,-0.3072,-0.3167,-0.3337,-0.3339,-0.3341,-0.3343,0,-0.2768,-0.2845,-0.2851,-0.2868,-0.2856,-0.2855,-0.285,-0.2894,-0.2993,-0.2975,-0.3054,-0.2976,-0.3052,-0.3039,-0.3055,-0.3086,-0.3155,-0.3109,-0.311,-0.3203,-0.3277,-0.3076,-0.3069,-0.3162,-0.3163,-0.3164,-0.3328,0,-0.2865,-0.2883,-0.2885,-0.2895,-0.288,-0.2897,-0.2926,-0.2967,-0.3016,-0.3043,-0.3067,-0.3011,-0.3019,-0.3019,-0.2996,-0.3041,-0.3082,-0.3055,-0.3095,-0.3095,-0.3167,-0.3178,-0.3038,-0.3038,-0.3037,-0.3037,0,0,-0.2908,-0.2919,-0.2972,-0.2968,-0.2966,-0.3067,-0.3051,-0.3069,-0.3069,-0.3106,-0.3096,-0.3059,-0.3029,-0.3025,-0.3005,-0.2981,-0.3033,-0.3062,-0.3079,-0.3083,-0.3088,-0.3157,-0.3168,-0.3036,-0.3036,-0.3036,-0.3036,0,-0.2933,-0.297,-0.2975,-0.2987,-0.3058,-0.3062,-0.3097,-0.3133,-0.3155,-0.3113,-0.3109,-0.3105,-0.3045,-0.3023,-0.301,-0.2976,-0.3056,-0.3003,-0.3047,-0.3074,-0.3079,-0.3084,-0.3153,-0.3163,-0.3035,-0.3035,-0.3035,0,-0.2974,-0.2997,-0.3006,-0.3033,-0.307,-0.3059,-0.3135,-0.3184,-0.3171,-0.317,-0.3124,-0.311,-0.3073,-0.3029,-0.3025,-0.3046,-0.3086,-0.3053,-0.3053,-0.3058,-0.3086,-0.3091,-0.3096,-0.3047,-0.3047,-0.3048,0,0,-0.299,-0.2996,-0.3043,-0.3041,-0.3071,-0.3122,-0.3141,-0.3177,-0.317,-0.3172,-0.3147,-0.3129,-0.3089,-0.3095,-0.3035,-0.3027,-0.3051,-0.3057,-0.3057,-0.3056,-0.3061,-0.3089,-0.3093,-0.3049,-0.3049,-0.3049,0,0,-0.299,-0.3036,-0.3075,-0.3071,-0.3099,-0.3112,-0.3127,-0.3173,-0.3153,-0.3183,-0.3158,-0.3149,-0.3115,-0.3109,-0.3123,-0.3099,-0.3097,-0.3093,-0.3127,-0.3126,-0.3125,-0.3141,-0.315,0,0,0,0,0,-0.305,-0.3032,-0.3068,-0.3077,-0.3099,-0.3101,-0.3103,-0.3136,-0.3202,-0.3195,-0.3166,-0.3203,-0.3089,-0.31,-0.3095,-0.314,-0.3066,-0.3063,-0.306,-0.3097,-0.3096,-0.3095,0,0,0,0,0,0,-0.3054,-0.306,-0.3069,-0.3083,-0.3091,-0.3101,-0.3131,-0.3137,-0.32,-0.3206,-0.3201,-0.32,-0.3161,-0.3105,-0.31,-0.3143,-0.3152,-0.3065,-0.3062,-0.306,-0.3097,-0.3096,-0.3095,0,0,0,0,0,-0.3057,-0.3062,-0.3094,-0.3083,-0.3089,-0.3135,-0.3132,-0.3137,-0.3187,-0.3157,-0.3159,-0.3224,-0.316,-0.3157,-0.3103,-0.3146,-0.3156,-0.3154,-0.3063,-0.3061,-0.3059,-0.3096,0,0,0,0,0,0,-0.3059,-0.3042,-0.3095,-0.3099,-0.3104,-0.3134,-0.3139,-0.3137,-0.3133,-0.3139,-0.317,-0.3174,-0.3158,-0.3156,-0.3154,-0.3148,-0.3159,-0.3157,-0.3155,-0.3061,-0.306,-0.3058,0,0,0,0,0,0,-0.3041,-0.3044,-0.3096,-0.3121,-0.3127,-0.3134,-0.3139,-0.3112,-0.3132,-0.3143,-0.3149,-0.3172,-0.317,-0.3156,-0.3154,-0.3111,-0.3161,-0.3159,-0.3158,-0.3157,-0.306,-0.3059,0,0,0,0,0,0,-0.3043,-0.3045,-0.3119,-0.3123,-0.3128,-0.3159,-0.311,-0.3128,-0.3167,-0.314,-0.3173,-0.3175,-0.3169,-0.3167,-0.3154,-0.3111,-0.3111,-0.3161,-0.316,-0.3159,-0.3158,0,0,0,0,0,0,0,-0.3045,-0.302,-0.3091,-0.3126,-0.313,-0.3135,-0.3135,-0.3134,-0.3168,-0.317,-0.3172,-0.3174,-0.3172,-0.3169,-0.3167,-0.3111,0,0,-0.3161,-0.316,0,0,0,0,0,0,0,0,-0.302,-0.302,-0.3091,-0.3093,-0.3095,-0.3135,-0.3135,-0.3134,-0.3168,-0.317,-0.3172,-0.3173,-0.3171,-0.3169,-0.3168,0,0,0,0,0,0,0,0,0,0,0,0,0,0,0,-0.3092,-0.3093,0,-0.3135,-0.3135,-0.3134,-0.3168,-0.317,-0.3171,-0.3173,-0.3171,-0.3169,-0.3168,0,0,0,0,0,0,0,0,0,0,0,0,0,0,0,0,0,0,0,0,0,0,0,0,0,0,0,0,0,0,0,0,0,0,0,0,0,0,0,0,0,0,0,0,0,0,0,0,0,0,0,0,0,0,0,0,0,0,0,0,0,0,0,0,0,0,0,0,0]}],[{"header":{"parameterUnit":"kt","parameterCategory":2,"dx":1,"dy":1,"la1":30.253999710083008,"la2":30.299108505249023,"lo1":-89.0895004272461,"lo2":-89.04439544677734,"nx":28,"ny":28,"refTime":"2022-10-02T21:00:00:Z","depth":"4","parameterNumber":3,"parameterNumberName":"V-component_of_CURRENTS"},"data":[-0.1261,-0.1348,-0.1394,-0.149,-0.1567,-0.1655,-0.1669,-0.1586,-0.1444,-0.127,-0.1005,-0.0788,-0.0334,-0.0478,0.0125,0.0206,0.0281,0.0755,0.0759,0.0875,0.0872,0.087,0.0516,0,0,0,0,0,-0.127,-0.1333,-0.14,-0.1478,-0.1565,-0.1619,-0.1605,-0.1568,-0.1443,-0.1241,-0.1141,-0.0798,-0.0331,-0.0115,0.0136,0.0216,0.0551,0.0508,0.0593,0.0873,0.087,0.0527,0,0,0,0,0,0,-0.1292,-0.1328,-0.1414,-0.146,-0.1536,-0.1585,-0.1571,-0.1474,-0.1402,-0.1155,-0.1047,-0.0664,-0.0421,-0.0024,0.0286,0.0545,0.0565,0.061,0.0621,0.0622,0.0314,0.0139,0.0476,0,0,0,0,0,-0.1301,-0.1341,-0.1389,-0.1466,-0.1508,-0.1529,-0.1532,-0.15,-0.1405,-0.13,-0.1012,-0.0727,-0.0357,-0.0012,0.0329,0.0612,0.0724,0.0855,0.0853,0.062,0.0521,0.0525,0.0486,0.086,0.0859,0.0859,0.0859,0,-0.1275,-0.1325,-0.1395,-0.1428,-0.1464,-0.1479,-0.1503,-0.1462,-0.1411,-0.119,-0.112,-0.0781,-0.0613,-0.0018,0.0206,0.0654,0.0645,0.0848,0.0597,0.0512,0.0526,0.0485,0.0446,0.0857,0.0857,0.0857,0.0857,0,-0.1245,-0.1296,-0.1359,-0.1414,-0.1431,-0.1448,-0.1458,-0.1428,-0.1346,-0.1223,-0.1167,-0.0936,-0.0603,-0.0326,0.0108,0.0205,0.0517,0.0613,0.0443,0.0472,0.0465,0.0426,0.0853,0.0854,0.0854,0.0855,0.0856,0,-0.1197,-0.1253,-0.1301,-0.1356,-0.1395,-0.143,-0.1429,-0.1413,-0.133,-0.1259,-0.1128,-0.0997,-0.0741,-0.0464,-0.0261,0.0062,0.0167,0.0188,0.0245,0.0045,0.0011,0.0105,0.0074,0.0335,0.0331,0.0327,0.0324,0,-0.1139,-0.1214,-0.1294,-0.1326,-0.1394,-0.1422,-0.1438,-0.1403,-0.1379,-0.1235,-0.1161,-0.0974,-0.0842,-0.0598,-0.0369,-0.0444,0.0055,-0.0005,0.0117,0.0115,0.0071,0.0046,0.0319,0.0319,0.0317,0.0316,0.0315,0,-0.1113,-0.1154,-0.1258,-0.1314,-0.1329,-0.1387,-0.1383,-0.1407,-0.132,-0.1294,-0.1192,-0.1114,-0.0945,-0.097,-0.0609,-0.0758,-0.0564,-0.0431,-0.0409,-0.0455,-0.049,-0.0271,-0.0164,-0.017,-0.0176,-0.0181,-0.0186,0,-0.1057,-0.1145,-0.117,-0.1262,-0.1302,-0.1318,-0.1359,-0.1374,-0.1349,-0.1291,-0.1222,-0.1174,-0.1203,-0.1154,-0.1037,-0.0877,-0.0703,-0.0939,-0.0484,-0.0469,-0.0505,-0.0416,-0.0772,-0.0266,-0.0256,-0.0249,-0.0243,0,-0.1003,-0.1071,-0.1084,-0.1112,-0.1182,-0.1214,-0.1271,-0.1284,-0.1252,-0.13,-0.1233,-0.1267,-0.12,-0.1189,-0.1164,-0.104,-0.0811,-0.1011,-0.1002,-0.0751,-0.0399,-0.0498,-0.0459,-0.0804,-0.0798,-0.0793,-0.0299,0,-0.0963,-0.1011,-0.1038,-0.1082,-0.1122,-0.1175,-0.1192,-0.1226,-0.1238,-0.1233,-0.1229,-0.1238,-0.1208,-0.1226,-0.1238,-0.1119,-0.1064,-0.1086,-0.0995,-0.1001,-0.0793,-0.075,-0.125,-0.125,-0.1249,-0.1249,0,0,-0.0891,-0.0935,-0.0932,-0.0972,-0.0999,-0.0999,-0.1052,-0.1075,-0.1144,-0.1136,-0.1152,-0.1177,-0.1184,-0.1149,-0.1182,-0.123,-0.1107,-0.1165,-0.1059,-0.1039,-0.102,-0.0819,-0.0778,-0.1248,-0.1248,-0.1248,-0.1248,0,-0.0855,-0.0872,-0.0907,-0.0934,-0.0963,-0.0974,-0.0988,-0.1022,-0.1026,-0.1123,-0.109,-0.1093,-0.1182,-0.1134,-0.1129,-0.1228,-0.1059,-0.1253,-0.1225,-0.1062,-0.1042,-0.1024,-0.0824,-0.0788,-0.1246,-0.1246,-0.1246,0,-0.0789,-0.0798,-0.0819,-0.0858,-0.0874,-0.0915,-0.0868,-0.0914,-0.0948,-0.0932,-0.1002,-0.1012,-0.1019,-0.1072,-0.1094,-0.1067,-0.0994,-0.1114,-0.1119,-0.1069,-0.0894,-0.0876,-0.086,-0.1043,-0.1042,-0.1041,0,0,-0.0757,-0.0788,-0.0799,-0.085,-0.0856,-0.0865,-0.0883,-0.0883,-0.0917,-0.0932,-0.0942,-0.0964,-0.0984,-0.0996,-0.1031,-0.1097,-0.0967,-0.1086,-0.1096,-0.1103,-0.1058,-0.0887,-0.0872,-0.1037,-0.1037,-0.1037,0,0,-0.0737,-0.0746,-0.0744,-0.0792,-0.0819,-0.0832,-0.0856,-0.0849,-0.0899,-0.09,-0.0873,-0.0876,-0.0934,-0.0941,-0.0897,-0.0959,-0.0925,-0.0936,-0.0926,-0.0939,-0.0948,-0.0875,-0.0788,0,0,0,0,0,-0.0705,-0.0747,-0.0746,-0.0754,-0.0801,-0.0845,-0.0852,-0.0831,-0.0801,-0.083,-0.0861,-0.0789,-0.0913,-0.0875,-0.0883,-0.0863,-0.0987,-0.0996,-0.1004,-0.101,-0.1023,-0.1034,0,0,0,0,0,0,-0.0708,-0.0719,-0.0745,-0.0759,-0.0768,-0.0843,-0.0782,-0.0779,-0.0796,-0.0788,-0.0793,-0.0789,-0.0769,-0.0865,-0.0874,-0.0854,-0.0785,-0.0991,-0.0998,-0.1005,-0.1014,-0.1025,-0.1034,0,0,0,0,0,-0.071,-0.0719,-0.0794,-0.0759,-0.0767,-0.0754,-0.0778,-0.0775,-0.0794,-0.0778,-0.0773,-0.0772,-0.0772,-0.0776,-0.087,-0.085,-0.0778,-0.0782,-0.0996,-0.1002,-0.1007,-0.1019,0,0,0,0,0,0,-0.0712,-0.073,-0.0796,-0.0798,-0.0721,-0.0749,-0.0752,-0.0773,-0.0782,-0.0778,-0.0754,-0.0747,-0.0775,-0.0778,-0.0782,-0.085,-0.0773,-0.0777,-0.0779,-0.1,-0.1005,-0.1009,0,0,0,0,0,0,-0.0725,-0.0732,-0.0797,-0.0751,-0.0748,-0.0745,-0.0747,-0.0795,-0.0782,-0.0758,-0.0753,-0.075,-0.0753,-0.0779,-0.0782,-0.086,-0.0769,-0.0772,-0.0775,-0.0776,-0.1004,-0.1007,0,0,0,0,0,0,-0.0728,-0.0734,-0.075,-0.0748,-0.0745,-0.0773,-0.0786,-0.0829,-0.076,-0.0759,-0.075,-0.0745,-0.0755,-0.0758,-0.0783,-0.086,-0.086,-0.0769,-0.0771,-0.0773,-0.0774,0,0,0,0,0,0,0,-0.073,-0.0688,-0.0775,-0.0746,-0.0744,-0.0817,-0.0818,-0.0819,-0.0759,-0.0755,-0.0751,-0.0747,-0.075,-0.0754,-0.0757,-0.086,0,0,-0.0769,-0.077,0,0,0,0,0,0,0,0,-0.0685,-0.0687,-0.0775,-0.0775,-0.0775,-0.0817,-0.0818,-0.0819,-0.0758,-0.0755,-0.0752,-0.0749,-0.0751,-0.0754,-0.0757,0,0,0,0,0,0,0,0,0,0,0,0,0,0,0,-0.0775,-0.0775,0,-0.0817,-0.0818,-0.0819,-0.0758,-0.0755,-0.0752,-0.075,-0.0752,-0.0754,-0.0757,0,0,0,0,0,0,0,0,0,0,0,0,0,0,0,0,0,0,0,0,0,0,0,0,0,0,0,0,0,0,0,0,0,0,0,0,0,0,0,0,0,0,0,0,0,0,0,0,0,0,0,0,0,0,0,0,0,0,0,0,0,0,0,0,0,0,0,0,0]}]]]